Wind_Speed
30 29 28 25 26 26 27 29 31 33 36 39 41 43 45 47 47 46 46 47 46 44 43 44 45 48 49 50 51 51 51 52 59 60 60 57 54 53 55 47 47 51 47
30 29 26 25 26 27 27 30 33 34 37 40 43 45 47 47 47 47 46 46 44 43 43 46 48 51 53 55 56 57 56 56 59 61 59 58 55 50 59 50 46 46 51
29 28 26 26 26 28 29 32 33 36 39 42 44 46 47 47 47 47 47 45 43 43 46 50 53 56 58 60 61 63 64 62 59 60 61 60 58 53 52 60 60 54 51
27 26 25 26 27 28 31 33 35 38 40 42 45 47 47 47 48 48 46 44 43 44 48 53 57 59 61 65 66 64 64 63 59 57 58 58 60 55 52 51 56 50 49
25 25 25 26 27 29 31 33 35 38 41 43 45 46 46 47 48 48 46 44 44 45 49 55 59 60 59 49 49 48 49 50 51 51 51 52 55 54 51 45 50 50 54
25 25 25 26 27 29 31 33 35 38 40 43 44 45 46 46 47 46 46 45 45 48 52 57 57 55 41 41 42 44 46 48 47 47 48 49 49 50 49 43 42 45 45
25 25 25 26 28 30 31 33 35 37 40 42 44 45 45 46 46 46 45 45 46 48 52 56 56 42 42 41 42 46 49 44 44 43 45 44 46 43 43 37 40 44 42
25 25 26 27 29 30 32 33 35 38 41 42 44 45 45 46 46 45 45 45 46 47 50 52 47 39 43 43 44 49 48 47 46 44 39 38 38 39 39 35 37 40 41
26 26 27 28 30 32 33 34 36 38 40 42 44 45 45 45 45 46 46 46 45 45 46 47 40 39 42 44 44 46 47 42 44 42 39 32 31 32 33 33 34 36 39
27 27 28 29 31 33 34 35 37 39 41 42 43 44 45 45 44 45 46 46 45 44 43 42 33 37 41 43 39 44 44 48 42 38 32 25 26 26 26 30 30 33 35
28 28 29 30 32 33 35 36 37 39 41 41 42 43 44 44 43 43 43 43 43 43 44 43 34 31 38 42 38 37 40 41 36 33 21 17 17 20 20 23 27 27 29
29 29 30 31 32 33 35 36 38 40 41 41 41 41 43 42 42 41 41 40 40 42 43 41 36 31 33 39 40 34 36 31 31 27 22 15 10 8 11 16 20 22 23
29 30 30 32 33 34 35 35 37 40 41 40 42 42 42 41 40 40 39 37 37 39 40 38 37 31 31 33 37 30 30 31 29 26 24 20 14 9 6 8 13 15 17
29 30 31 32 33 34 35 35 38 39 40 40 42 43 42 41 40 40 40 39 37 36 38 36 35 32 29 29 29 29 25 26 28 26 25 23 16 9 6 7 7 11 16
29 30 31 32 33 33 34 34 36 40 41 41 42 44 46 44 42 42 42 41 39 38 38 37 34 32 28 26 24 26 24 23 24 25 25 21 16 12 8 5 6 15 14
29 30 31 32 32 32 32 33 37 37 38 39 41 43 43 44 43 42 39 39 38 37 37 39 35 32 31 27 26 24 26 23 22 24 23 22 21 17 11 9 7 10 19
30 30 31 32 32 32 32 31 30 34 38 38 38 39 40 41 41 42 40 38 37 37 36 36 35 31 30 28 27 24 23 24 24 24 23 22 21 17 13 10 8 7 8
30 30 31 32 32 32 32 33 34 34 32 30 35 37 38 39 40 41 41 38 35 34 34 33 34 31 29 28 28 27 23 21 22 23 22 22 22 19 11 9 8 5 5
30 30 30 32 32 31 31 32 33 34 35 35 35 36 37 37 38 40 40 39 37 36 34 31 32 32 29 28 27 27 28 26 22 20 21 20 19 20 18 11 7 5 5
30 29 30 31 31 31 31 32 33 33 34 35 37 38 38 38 37 37 38 38 37 36 36 34 31 31 31 29 27 26 25 26 26 22 19 19 17 17 16 15 15 14 10
29 29 30 31 30 31 31 32 32 33 33 34 35 37 39 40 41 41 40 39 38 37 36 35 33 31 32 30 27 25 25 24 24 25 21 17 17 15 16 14 12 11 10
28 29 30 30 30 30 31 32 32 32 34 34 34 36 37 39 40 41 40 38 37 37 36 36 34 33 32 32 30 27 24 24 23 23 24 22 18 17 15 15 14 12 11
27 28 29 29 29 29 31 31 31 33 34 35 36 36 37 39 40 41 40 39 37 36 36 35 35 33 31 31 31 29 26 24 22 22 22 24 22 20 17 15 14 13 12
27 28 28 28 29 29 31 30 31 32 34 34 35 36 39 41 41 41 41 39 37 35 35 35 34 33 32 30 30 29 27 25 24 22 21 21 23 23 21 18 15 14 13
27 28 28 28 28 28 30 30 31 32 34 35 36 37 40 43 43 42 41 40 37 35 34 34 34 33 32 31 30 29 29 25 24 23 21 20 21 24 25 22 19 15 13
26 27 27 28 28 28 30 30 31 32 33 34 36 39 43 44 43 42 41 40 38 36 34 34 33 32 32 32 30 30 28 27 24 23 22 21 19 22 27 26 23 18 14
Wind_Direction
320 317 317 319 319 320 320 321 323 324 325 324 324 325 325 326 326 325 324 324 323 321 319 318 316 313 311 307 302 296 290 287 286 283 283 277 271 264 264 256 254 246 243
317 314 314 313 314 315 320 322 323 324 324 325 327 327 327 327 325 324 324 324 324 323 322 320 318 315 312 308 303 298 293 288 285 283 280 279 274 266 257 257 248 252 248
313 310 309 310 313 319 321 322 322 325 328 328 327 327 328 327 325 325 327 327 326 325 324 323 321 318 314 309 304 299 294 289 285 281 279 278 276 271 260 255 253 249 248
308 303 305 310 315 319 320 321 324 328 328 328 328 329 329 327 327 327 327 325 325 325 324 324 323 319 315 310 305 302 298 292 287 281 277 274 272 269 265 258 249 243 240
303 301 306 311 313 317 319 322 326 329 328 328 330 330 328 328 328 328 326 325 325 325 326 326 324 322 320 320 320 319 313 304 296 287 279 273 271 267 264 257 253 250 244
299 301 305 309 313 317 320 323 327 328 328 330 330 329 329 329 329 328 324 324 324 325 326 327 326 326 327 328 328 323 317 311 306 296 285 277 271 270 264 257 251 248 242
296 300 305 309 313 317 319 323 327 329 330 331 331 330 329 330 329 327 324 324 325 326 329 329 330 330 329 330 331 329 327 318 308 300 292 283 275 270 267 256 247 244 243
295 301 305 309 314 317 320 325 328 330 331 333 332 331 330 330 329 328 325 325 327 330 332 331 330 329 332 330 330 331 327 324 325 313 298 288 277 270 264 256 247 242 235
297 302 306 312 316 318 321 326 329 331 332 334 333 332 330 330 330 329 327 326 329 332 333 333 328 328 330 337 337 327 327 327 323 313 304 291 277 267 264 251 244 241 235
300 303 309 314 317 318 322 327 329 331 333 334 334 332 331 330 330 330 329 329 331 333 333 333 327 327 333 341 337 327 327 334 331 323 314 288 277 265 257 247 242 239 238
301 306 311 314 316 319 324 326 328 331 333 334 335 333 330 329 331 331 331 330 330 334 335 335 327 323 333 345 339 329 337 338 339 341 332 315 287 266 254 243 242 241 238
302 306 309 313 317 321 323 326 328 330 332 333 334 333 331 330 332 333 332 331 331 334 335 335 328 319 327 338 343 329 339 343 354 358 4 356 334 293 261 247 238 244 243
301 304 310 314 318 321 322 325 327 329 330 332 333 334 333 332 333 334 333 332 331 334 335 333 331 316 316 332 341 342 343 355 0 360 6 17 14 340 300 266 254 238 235
300 305 310 315 318 320 321 325 326 327 328 332 334 334 334 334 335 335 334 335 333 333 336 333 332 323 312 322 335 338 346 355 359 360 3 1 359 357 329 295 248 207 217
301 306 310 314 316 318 320 323 325 326 329 333 335 336 335 336 337 337 337 335 334 334 334 335 330 331 318 310 326 338 339 344 351 356 359 1 354 348 341 306 267 222 242
302 306 309 313 315 317 320 323 324 327 329 333 335 336 336 334 335 335 335 333 333 332 332 335 332 330 329 318 318 327 338 337 338 343 341 344 351 354 341 323 292 251 241
302 305 309 312 314 317 318 321 323 325 328 332 334 335 334 334 334 333 333 334 332 332 330 331 333 328 327 319 311 315 324 335 341 342 343 349 350 336 330 322 308 294 275
301 304 308 312 314 316 318 322 324 325 328 331 333 335 335 334 333 332 332 333 333 330 329 330 334 331 325 322 313 303 304 314 328 336 341 344 350 350 341 319 305 296 281
301 303 309 311 313 316 317 322 323 325 330 334 335 336 335 335 334 333 332 331 332 331 331 331 334 336 329 322 318 310 298 296 305 320 331 334 339 346 350 356 357 338 343
299 305 308 310 314 315 318 322 321 325 330 333 334 335 336 336 335 333 332 332 332 332 332 333 333 335 335 326 319 315 309 295 288 293 307 318 324 328 332 344 356 2 357
300 305 307 310 313 314 319 321 320 325 329 332 334 335 336 337 337 336 334 333 333 332 331 332 332 332 334 332 324 316 314 306 295 281 281 296 305 313 316 316 329 343 348
300 304 307 310 312 314 319 318 320 325 329 331 334 336 336 337 335 334 333 332 332 332 329 329 332 330 330 331 329 322 313 310 302 293 276 272 282 291 302 307 303 308 325
300 304 306 309 312 315 317 317 321 325 329 331 333 335 336 337 335 333 332 332 331 330 329 326 327 329 327 328 328 326 319 309 308 301 288 271 264 270 278 290 295 290 294
300 303 306 309 312 314 317 319 322 325 328 330 332 335 336 336 334 332 331 330 330 329 328 326 324 326 327 325 328 326 321 313 305 305 297 282 262 257 262 269 283 287 278
299 302 306 309 311 313 317 320 322 325 327 328 331 334 336 335 333 332 330 329 329 328 327 325 324 324 324 324 324 327 324 316 307 301 301 293 275 256 254 257 263 274 278
300 303 307 309 310 312 318 321 323 325 326 327 331 334 335 335 335 332 330 328 328 328 326 326 324 323 322 323 321 323 324 319 308 301 297 299 287 266 253 251 253 259 270
Height
3133 3128 3124 3121 3118 3115 3112 3108 3104 3100 3095 3091 3085 3080 3074 3067 3059 3054 3049 3043 3038 3033 3028 3022 3017 3010 3005 3000 2995 2989 2984 2978 2965 2963 2960 2965 2967 2969 2968 2972 2972 2975 2978
3127 3123 3119 3117 3114 3110 3106 3103 3099 3094 3089 3084 3077 3071 3064 3058 3051 3046 3040 3035 3028 3023 3018 3012 3006 2999 2993 2986 2978 2972 2966 2962 2953 2945 2947 2944 2947 2952 2951 2953 2958 2959 2961
3121 3118 3115 3112 3109 3105 3101 3097 3093 3088 3082 3076 3070 3064 3057 3050 3043 3037 3030 3024 3019 3013 3007 3000 2992 2985 2978 2970 2961 2952 2945 2940 2936 2928 2926 2927 2926 2932 2934 2934 2938 2944 2947
3116 3113 3111 3108 3104 3099 3096 3092 3086 3080 3075 3070 3064 3056 3049 3042 3034 3027 3020 3015 3010 3005 2998 2989 2981 2971 2961 2951 2941 2933 2923 2916 2913 2909 2906 2906 2906 2912 2914 2916 2917 2925 2931
3110 3108 3106 3102 3099 3095 3091 3086 3080 3074 3069 3062 3056 3050 3042 3034 3026 3018 3011 3006 3001 2996 2988 2978 2968 2958 2946 2936 2926 2919 2909 2900 2895 2890 2887 2887 2887 2891 2895 2901 2900 2906 2913
3106 3103 3100 3097 3093 3089 3085 3080 3075 3069 3063 3056 3049 3042 3035 3027 3018 3010 3003 2997 2992 2985 2977 2968 2957 2946 2937 2929 2920 2910 2900 2889 2882 2876 2872 2870 2871 2874 2878 2884 2886 2889 2894
3101 3098 3095 3091 3087 3083 3079 3073 3068 3062 3055 3049 3042 3034 3027 3019 3010 3003 2995 2989 2983 2975 2966 2954 2945 2936 2928 2919 2912 2901 2893 2883 2873 2865 2858 2857 2856 2859 2862 2868 2871 2875 2881
3096 3093 3090 3086 3081 3077 3072 3066 3060 3054 3047 3041 3034 3026 3019 3011 3003 2994 2987 2980 2974 2966 2955 2945 2934 2927 2920 2910 2901 2892 2884 2875 2866 2855 2847 2844 2844 2846 2848 2854 2858 2862 2869
3090 3087 3084 3079 3074 3070 3064 3058 3052 3047 3040 3033 3026 3018 3011 3004 2995 2986 2977 2970 2965 2958 2948 2938 2927 2920 2913 2904 2893 2885 2876 2867 2857 2846 2837 2833 2832 2834 2838 2841 2847 2851 2856
3083 3080 3076 3072 3067 3062 3057 3051 3045 3039 3032 3025 3018 3011 3003 2996 2987 2978 2969 2960 2953 2949 2943 2932 2923 2915 2907 2899 2889 2881 2870 2858 2846 2836 2828 2824 2823 2825 2828 2832 2838 2842 2848
3076 3073 3069 3065 3060 3055 3049 3043 3038 3032 3024 3017 3011 3004 2997 2989 2980 2971 2963 2954 2946 2940 2931 2924 2917 2911 2903 2895 2886 2878 2868 2857 2844 2833 2824 2820 2819 2820 2822 2826 2830 2836 2841
3070 3066 3062 3058 3053 3048 3042 3036 3030 3024 3017 3010 3004 2998 2990 2982 2973 2965 2957 2949 2940 2932 2925 2916 2909 2904 2898 2892 2883 2875 2867 2857 2846 2836 2828 2822 2820 2819 2820 2823 2826 2830 2834
3063 3060 3056 3051 3046 3041 3036 3030 3024 3018 3011 3003 2997 2990 2984 2976 2967 2959 2951 2943 2936 2928 2919 2910 2902 2898 2894 2889 2882 2874 2865 2856 2847 2840 2833 2828 2824 2822 2821 2822 2824 2827 2831
3057 3053 3049 3045 3040 3035 3030 3023 3017 3011 3005 2996 2989 2982 2977 2968 2959 2952 2944 2936 2929 2922 2915 2907 2899 2892 2888 2885 2881 2874 2865 2858 2850 2843 2837 2832 2828 2826 2825 2824 2824 2826 2830
3050 3046 3043 3038 3034 3029 3024 3018 3012 3003 2996 2988 2981 2973 2964 2958 2952 2944 2935 2928 2922 2915 2909 2902 2895 2888 2882 2879 2876 2871 2865 2858 2852 2846 2840 2835 2831 2828 2826 2824 2825 2826 2828
3042 3039 3036 3032 3028 3023 3018 3012 3004 2998 2990 2982 2974 2967 2961 2951 2944 2938 2932 2924 2917 2909 2904 2896 2889 2882 2876 2871 2869 2866 2862 2856 2851 2846 2841 2837 2833 2829 2826 2825 2824 2824 2825
3035 3032 3029 3025 3021 3016 3011 3007 3003 2993 2983 2976 2970 2963 2956 2948 2939 2932 2926 2919 2911 2905 2898 2891 2884 2877 2872 2866 2863 2861 2858 2854 2849 2845 2841 2837 2832 2829 2826 2824 2823 2822 2821
3028 3025 3022 3018 3014 3009 3004 2998 2992 2987 2982 2975 2966 2958 2951 2942 2934 2926 2919 2913 2907 2900 2893 2886 2879 2872 2867 2862 2858 2855 2854 2852 2848 2844 2840 2836 2832 2828 2825 2823 2821 2820 2819
3021 3018 3015 3011 3007 3002 2997 2991 2985 2979 2971 2964 2958 2952 2945 2938 2930 2921 2914 2907 2900 2894 2888 2882 2874 2868 2862 2857 2852 2849 2846 2845 2844 2842 2839 2835 2832 2828 2825 2822 2820 2818 2816
3014 3011 3007 3004 3000 2995 2990 2984 2979 2972 2965 2958 2951 2944 2938 2932 2925 2918 2910 2902 2894 2888 2881 2875 2869 2863 2857 2852 2847 2843 2840 2837 2837 2837 2835 2833 2830 2827 2825 2822 2819 2816 2814
3006 3004 3001 2997 2992 2988 2982 2978 2972 2966 2960 2953 2946 2938 2931 2923 2916 2909 2903 2895 2888 2881 2875 2869 2864 2858 2853 2847 2842 2838 2834 2831 2828 2828 2829 2828 2826 2825 2823 2820 2819 2817 2815
2999 2997 2994 2990 2985 2981 2976 2971 2966 2960 2953 2947 2941 2934 2926 2919 2911 2904 2897 2890 2883 2876 2869 2863 2858 2852 2847 2841 2836 2831 2828 2825 2822 2820 2820 2821 2821 2820 2819 2817 2815 2815 2813
2993 2990 2987 2983 2978 2974 2970 2965 2959 2953 2947 2941 2934 2928 2921 2913 2906 2898 2891 2884 2877 2871 2864 2858 2852 2847 2842 2836 2831 2825 2821 2818 2816 2813 2812 2812 2813 2814 2813 2813 2812 2811 2810
2986 2983 2979 2975 2972 2968 2963 2958 2952 2947 2941 2936 2929 2922 2914 2907 2900 2892 2885 2878 2871 2865 2858 2852 2846 2840 2835 2830 2826 2820 2815 2812 2809 2807 2804 2804 2804 2806 2806 2807 2807 2806 2806
2979 2976 2972 2969 2965 2961 2956 2951 2946 2941 2935 2929 2923 2915 2908 2900 2893 2885 2878 2871 2865 2858 2853 2846 2840 2834 2829 2824 2819 2814 2809 2805 2802 2800 2798 2797 2796 2797 2798 2800 2801 2802 2801
2972 2968 2965 2962 2959 2954 2950 2945 2940 2935 2930 2924 2917 2909 2901 2893 2885 2878 2871 2864 2858 2852 2845 2840 2834 2828 2822 2817 2812 2808 2803 2799 2796 2793 2791 2790 2789 2789 2790 2792 2794 2795 2796